sat.trackr.live / text

‹ back to catalog

STARLINK-35160

NORAD 65911 · 2025-225B

PAYLOAD ACTIVE UNKNOWN

§ Identity

Operator
Country
US
Launch date
2025-10-08
Launch site
AFWTR
Launch vehicle
Mass (kg)
RCS (m²)

Purposes: comms

External: N2YO · Heavens-Above · Gunter

§ Orbital elements

Epoch: 2026-05-25T04:00:03.998880Z

Period
93.90 min
Inclination
53.1590°
Eccentricity
0.0001472
Mean motion
15.33552706 rev/d
Perigee alt
464.2 km
Apogee alt
466.2 km
Semi-major
6,843.4 km
B*
-2.7791e-4
RAAN
170.7003°
Arg perigee
104.2449°
Mean anomaly
255.6405°
Rev number
585

§ Raw data

STARLINK-351601 65911U 25225B   26145.16671295 -.00009502  00000+0 -27791-3 0  99992 65911  53.1590 170.7003 0001472 104.2449 255.6405 15.33552706  5855

JSON: /api/v1/satellites/65911 · /tle

For live sub-satellite position, see the globe view (requires WebGL).

§ Visibility from observer

Set your observer location to see the next 7 days of passes ≥ 10°. The values pass through the URL so the page stays shareable.

No JS? Fill the form by hand. The geolocation button needs JavaScript.